Location: Aressy
(43.2833°N, 0.3167°W)
Time: 21:04:08
(UTC+00:00)

CZ-3B R/B - Pass Details

Date: 28 January 2021
Orbit: 279 x 17414 km, 54.8° (Epoch: 02 March)

Event Time Altitude Azimuth Distance (km) Brightness Sun altitude
Rises 17:25:06 0° 318° (NW) 2,026 5.0 -3.7°
Reaches altitude 10° 17:26:36 10° 334° (NNW) 1,383 4.0 -3.9°
Maximum altitude 17:28:58 28° 39° (NE) 1,063 2.8 -4.3°
Drops below altitude 10° 17:34:15 10° 98° (E) 3,209 5.2 -5.2°
Sets 17:40:07 0° 108° (ESE) 5,881 6.5 -6.3°
